星链-35992(STARLINK-35992)

导读

STARLINK-35992是美国SpaceX星链(Starlink)星座的成员卫星,于2025年12月2日发射升空。星链项目旨在打造全球卫星互联网星座,为全球偏远地区、网络覆盖不足区域提供高速低延迟的宽带互联网服务。该卫星延续星链标准设计,加入低轨卫星星座组网,进一步完善了星链星座的全球覆盖能力,支撑星座服务性能提升。

基本信息
目录编号:
66852
目录名称:
STARLINK-35992
国际标识:
2025-281E
轨道中心:
EARTH
卫星名称:
星链-35992
卫星全名:
星链-35992(STARLINK-35992)
卫星状态:
在轨 (已飞行276 天)
发射日期:
2025-12-02 UTC
国别 :
美国 (US)
星等 :
--
轨道信息
数据来源 国际轨道数据
星历时间: 2026-09-03T20:25:45+0800
20小时前
查看轨道信息
半长轴: 6861.17km
偏心率: 0.0001326
轨道倾角: 43.002°
近地点辐角 267.434°
升交点赤经 59.054°
平近点角 92.636°
近地点: 482.123km
远地点: 483.943km
周期: 94.266分钟
每日圈数: 15.275856
详细信息
固有亮度:
5
最大亮度:
2.5
卫星平台:
Starlink V1.0
覆盖范围:
全球
运营商:
太空探索技术公司
运营商所在国:
美国
制造商(研发单位):
太空探索技术公司
制造商所在国:
美国
使用方式:
暂无
卫星简介
Starlink 计划是 SpaceX 推出的全球卫星互联网项目,通过发射低轨道卫星,为全球尤其是偏远地区提供高速、低延迟的互联网服务。自 2019 年起,Starlink 已部署数千颗卫星,旨在缩小全球数字鸿沟,推动互联网普及。该项目还为军事、航空等行业提供通信支持,带来广泛经济效益。
2D轨道图
3D轨道图
轨道高度分析图
轨道倾角分析图
轨道综合分析图
查看轨道综合分析图
交会数据列表
事件ID 空间交会对象 最接近时刻(TCA) 交会距离 交会风险概率(CRP) 交会风险指数(CRI) 操作
CDM_260905-031006-193206-685221
2026-09-05T
03:10:06+0000
0.026 km
近距离
1.53278E-3 极高风险 0.99
CDM_260905-140706-221206-685221
2026-09-05T
14:07:07+0000
0.434 km
远距离
1.73378E-4 高风险 0.8
CDM_260829-195906-384606-685221
2026-08-29T
19:59:52+0000
0.974 km
远距离
1.863802E-5 中风险 0.6
CDM_260906-152005-792806-685221
2026-09-06T
15:20:08+0000
0.794 km
远距离
1.227603E-5 中风险 0.57
CDM_260904-233705-989706-685221
2026-09-04T
23:37:29+0000
1.313 km
极远距离
7.938208E-6 低风险 0.53
CDM_260905-013506-193206-685221
2026-09-05T
01:35:57+0000
1.313 km
极远距离
5.0094E-6 低风险 0.49
CDM_260905-011105-989706-685221
2026-09-05T
01:11:38+0000
1.571 km
极远距离
4.391166E-6 低风险 0.48
CDM_260905-123206-221206-685221
2026-09-05T
12:32:58+0000
1.660 km
极远距离
2.800366E-6 低风险 0.44
CDM_260829-185706-193206-685221
2026-08-29T
18:57:02+0000
1.592 km
极远距离
2.71875E-6 低风险 0.44
CDM_260906-191505-792806-685221
2026-09-06T
19:15:31+0000
1.274 km
极远距离
2.509962E-6 低风险 0.43